Regional Weather Roundup
Issued by NWS Albany, NY

Home | Current Version | Previous Version | Text Only | Print | Product List | Glossary On
Versions: 1 2 3 4 5 6 7 8 9 10 11 12 13 14 15 16 17 18 19 20 21 22 23 24 25 26 27 28 29 30 31 32 33 34 35 36 37 38 39 40 41 42 43 44 45 46 47 48 49 50
000
ASUS41 KALY 052110
RWRALY

NEW YORK STATE HOURLY WEATHER ROUNDUP
NATIONAL WEATHER SERVICE ALBANY NY
400 PM EST THU MAR 05 2015

NOTE: "FAIR" INDICATES FEW OR NO CLOUDS BELOW 12,000 FEET WITH NO
SIGNIFICANT WEATHER AND/OR NO OBSTRUCTIONS TO VISIBILITY.

NYZ032-033-038>043-046>054-057>066-NYZ062>081-052200-
EAST


CITY           SKY/WX    TMP DP  RH WIND       PRES   REMARKS
ALBANY         CLOUDY    20   4  50 NW15      30.18F WCI   6
GLENS FALLS    CLOUDY    19   1  45 NE7       30.19F WCI  10
POUGHKEEPSIE   CLOUDY    23   4  44 N10       30.17R WCI  12
NEWBURGH       CLOUDY    23   5  46 N7        30.15R WCI  15
MONTGOMERY     CLOUDY    23   2  40 NW8       30.15R WCI  14
WHITE PLAINS   SNOW      20  14  77 N9        30.15R VSB 1/2 WCI   9
ISLIP          LGT SNOW  22  15  75 NW9       30.15R WCI  12
NEW YORK CITY  SNOW      23  18  80 NW8       30.20R VSB 1/2 WCI  14
CENTRAL PARK   SNOW      20  16  84 W7        30.21R VSB 1/2 WCI  11
$$

NYZ005>009-017-018-044>046-055-056-052200-
CENTRAL


CITY           SKY/WX    TMP DP  RH WIND       PRES   REMARKS
FULTON         PTSUNNY   14   2  58 W8        30.29R WCI   3
SYRACUSE       CLOUDY    12   2  64 NW12      30.28R WCI  -2
ROME           CLOUDY    15   0  51 W13       30.24F WCI   1
ELMIRA         CLOUDY    15   1  53 NW10      30.23R WCI   2
BINGHAMTON     CLOUDY    11   3  70 NW12      30.13R HAZE    WCI  -3
MONTICELLO     CLOUDY    16   1  53 NW8       30.11R WCI   5
$$

NYZ026>034-041>043-052200-
NORTH


CITY           SKY/WX    TMP DP  RH WIND       PRES   REMARKS
WATERTOWN      SUNNY     16  -2  45 CALM      30.28F
FORT DRUM      NOT AVBL
MASSENA        SUNNY     12  -9  38 W8        30.30R WCI   0
SARANAC LAKE   MOSUNNY   10 -12  36 VRB6      30.08S WCI   0
PLATTSBURGH    PTSUNNY   15  -4  42 N17       30.22R WCI  -1
$$

NYZ001>004-010>016-019>021-052200-
WEST


CITY           SKY/WX    TMP DP  RH WIND       PRES   REMARKS
NIAGARA FALLS  PTSUNNY   12   2  64 W12       30.33R WCI  -2
BUFFALO        PTSUNNY   12   0  58 W9        30.32R WCI   0
DUNKIRK        MOSUNNY   11  -1  58 W9        30.36R WCI  -2
JAMESTOWN      SUNNY      9  -4  56 NW13      30.22R WCI  -7
WELLSVILLE     PTSUNNY   11  -5  48 NW9       30.14R WCI  -2
ROCHESTER      CLOUDY    15   2  56 W12       30.31R WCI   2
PENN YAN       CLOUDY    14   0  53 NW9       30.25R WCI   2
$$

             KEY
       WCI = WIND CHILL INDEX
       VSB = VISIBILITY
       HX  = HEAT INDEX
$$



USA.gov is the U.S. government's official web portal to all federal, state and local government web resources and services.